,,,PA_Meas_PMT16A,,PR_Meas_QMR101_102,,RH_Meas_QMH101,,SR_Meas_QMS101,,TA_Meas_QMH101,,GenWind,,GenWind,
date,time,status,PA,status,PR,status,RH,status,SR,status,TA,status,DirAvg,status,SpdAvg,
2010-07-15, 00:00:04,VALID,1008.82,VALID,0,VALID,102.376,VALID,0,VALID,24.7074,VALID,15,VALID,0.7,
2010-07-15, 00:01:04,VALID,1008.81,VALID,0,VALID,102.284,VALID,0,VALID,24.6666,VALID,18,VALID,0.428125,
2010-07-15, 00:02:04,VALID,1008.79,VALID,0,VALID,102.193,VALID,0.105969,VALID,24.686,VALID,18,VALID,0,
2010-07-15, 00:03:04,VALID,1008.8,VALID,0,VALID,102.132,VALID,0,VALID,24.6666,VALID,72,VALID,0.687891,
2010-07-15, 00:04:04,VALID,1008.79,VALID,0,VALID,102.078,VALID,0,VALID,24.686,VALID,88,VALID,0.914063,
2010-07-15, 00:05:04,VALID,1008.8,VALID,0,VALID,102.078,VALID,0.105969,VALID,24.686,VALID,92,VALID,1.09297,
2010-07-15, 00:06:04,VALID,1008.78,VALID,0,VALID,102.132,VALID,0,VALID,24.7269,VALID,103,VALID,1.35195,
2010-07-15, 00:07:04,VALID,1008.75,VALID,0,VALID,102.109,VALID,0,VALID,24.686,VALID,84,VALID,1.06875,
2010-07-15, 00:08:04,VALID,1008.72,VALID,0,VALID,102.078,VALID,0,VALID,24.7074,VALID,100,VALID,1.3625,
2010-07-15, 00:09:04,VALID,1008.71,VALID,0,VALID,101.994,VALID,0,VALID,24.7074,VALID,85,VALID,1.64414,
2010-07-15, 00:10:04,VALID,1008.67,VALID,0,VALID,101.979,VALID,0,VALID,24.7269,VALID,97,VALID,0.999609,
2010-07-15, 00:11:04,VALID,1008.69,VALID,0,VALID,101.933,VALID,0.105969,VALID,24.725,VALID,92,VALID,0.676953,
2010-07-15, 00:12:04,VALID,1008.64,VALID,0,VALID,101.888,VALID,0.105969,VALID,24.7445,VALID,91,VALID,0.979688,
2010-07-15, 00:13:04,VALID,1008.63,VALID,0,VALID,101.789,VALID,0,VALID,24.7854,VALID,72,VALID,0.504297,
2010-07-15, 00:14:04,VALID,1008.65,VALID,0,VALID,101.735,VALID,0.105969,VALID,24.7835,VALID,97,VALID,0.582031,
2010-07-15, 00:15:04,VALID,1008.63,VALID,0,VALID,101.636,VALID,0,VALID,24.803,VALID,67,VALID,0.665234,
2010-07-15, 00:16:04,VALID,1008.65,VALID,0,VALID,101.522,VALID,0,VALID,24.8244,VALID,78,VALID,0.647656,
2010-07-15, 00:17:04,VALID,1008.66,VALID,0,VALID,101.43,VALID,0.105969,VALID,24.803,VALID,58,VALID,0.466016,
2010-07-15, 00:18:04,VALID,1008.66,VALID,0,VALID,101.339,VALID,0,VALID,24.803,VALID,58,VALID,0.579297,
2010-07-15, 00:19:04,VALID,1008.71,VALID,0,VALID,101.377,VALID,0.105969,VALID,24.803,VALID,56,VALID,0.481641,
2010-07-15, 00:20:04,VALID,1008.73,VALID,0,VALID,101.43,VALID,0,VALID,24.7835,VALID,49,VALID,0.694922,
2010-07-15, 00:21:04,VALID,1008.77,VALID,0,VALID,101.445,VALID,0,VALID,24.764,VALID,54,VALID,0.664453,
2010-07-15, 00:22:04,VALID,1008.77,VALID,0,VALID,101.491,VALID,0,VALID,24.7445,VALID,72,VALID,0.603516,
2010-07-15, 00:23:04,VALID,1008.81,VALID,0,VALID,101.56,VALID,0,VALID,24.7854,VALID,72,VALID,0.084375,
2010-07-15, 00:24:04,VALID,1008.8,VALID,0,VALID,101.606,VALID,0.105969,VALID,24.7445,VALID,67,VALID,0.769922,
2010-07-15, 00:25:04,VALID,1008.83,VALID,0,VALID,101.674,VALID,0,VALID,24.8828,VALID,96,VALID,1.25273,
2010-07-15, 00:26:04,VALID,1008.83,VALID,0,VALID,101.537,VALID,0.105969,VALID,24.9589,VALID,82,VALID,1.25859,
2010-07-15, 00:27:04,VALID,1008.84,VALID,0,VALID,101.445,VALID,0,VALID,25.0174,VALID,98,VALID,1.7707,
2010-07-15, 00:28:04,VALID,1008.83,VALID,0,VALID,101.323,VALID,0,VALID,25.1167,VALID,81,VALID,2.28867,
2010-07-15, 00:29:04,VALID,1008.86,VALID,0,VALID,100.873,VALID,0.105969,VALID,25.1343,VALID,79,VALID,1.59102,
2010-07-15, 00:30:04,VALID,1008.84,VALID,0,VALID,100.576,VALID,0,VALID,25.1148,VALID,95,VALID,1.98242,
2010-07-15, 00:31:04,VALID,1008.79,VALID,0,VALID,100.355,VALID,0,VALID,25.0954,VALID,87,VALID,1.38203,
2010-07-15, 00:32:04,VALID,1008.79,VALID,0,VALID,100.225,VALID,0,VALID,25.0759,VALID,88,VALID,1.93242,
2010-07-15, 00:33:04,VALID,1008.76,VALID,0,VALID,100.164,VALID,0.105969,VALID,25.0759,VALID,91,VALID,1.33047,
2010-07-15, 00:34:04,VALID,1008.76,VALID,0,VALID,99.905,VALID,0,VALID,25.0778,VALID,83,VALID,1.39727,
2010-07-15, 00:35:04,VALID,1008.75,VALID,0,VALID,99.5466,VALID,0,VALID,25.0583,VALID,89,VALID,1.88398,
2010-07-15, 00:36:04,VALID,1008.73,VALID,0,VALID,99.3559,VALID,0,VALID,25.0174,VALID,78,VALID,1.34609,
2010-07-15, 00:37:04,VALID,1008.7,VALID,0,VALID,99.4932,VALID,0.105969,VALID,24.9979,VALID,83,VALID,0.940234,
2010-07-15, 00:38:04,VALID,1008.7,VALID,0,VALID,99.5161,VALID,0,VALID,24.9784,VALID,110,VALID,0.744141,
2010-07-15, 00:39:04,VALID,1008.66,VALID,0,VALID,98.8603,VALID,0.105969,VALID,24.9394,VALID,71,VALID,1.91445,
2010-07-15, 00:40:04,VALID,1008.64,VALID,0,VALID,97.6401,VALID,0,VALID,24.9199,VALID,76,VALID,0.967969,
2010-07-15, 00:41:04,VALID,1008.62,VALID,0,VALID,95.871,VALID,0.105969,VALID,24.9004,VALID,103,VALID,1.55391,
2010-07-15, 00:42:04,VALID,1008.59,VALID,0,VALID,94.6814,VALID,0.105969,VALID,24.842,VALID,83,VALID,2.30156,
2010-07-15, 00:43:04,VALID,1008.57,VALID,0,VALID,95.1618,VALID,0,VALID,24.842,VALID,75,VALID,1.36445,
2010-07-15, 00:44:04,VALID,1008.58,VALID,0,VALID,96.0769,VALID,0.105969,VALID,24.803,VALID,58,VALID,1.10664,
2010-07-15, 00:45:04,VALID,1008.55,VALID,0,VALID,96.3285,VALID,0.105969,VALID,24.764,VALID,83,VALID,1.24961,
2010-07-15, 00:46:04,VALID,1008.52,VALID,0,VALID,95.7871,VALID,0.105969,VALID,24.725,VALID,91,VALID,1.63281,
2010-07-15, 00:47:04,VALID,1008.5,VALID,0,VALID,97.5563,VALID,0,VALID,24.7055,VALID,75,VALID,0.898438,
2010-07-15, 00:48:04,VALID,1008.49,VALID,0,VALID,97.4571,VALID,0.105969,VALID,24.6666,VALID,80,VALID,1.8,
2010-07-15, 00:49:04,VALID,1008.49,VALID,0,VALID,97.4419,VALID,0.105969,VALID,24.6276,VALID,60,VALID,1.39844,
2010-07-15, 00:50:04,VALID,1008.45,VALID,0,VALID,98.2426,VALID,0,VALID,24.5886,VALID,70,VALID,1.55234,
2010-07-15, 00:51:04,VALID,1008.42,VALID,0,VALID,98.5705,VALID,0,VALID,24.571,VALID,88,VALID,0.878516,
2010-07-15, 00:52:04,VALID,1008.4,VALID,0,VALID,98.4714,VALID,0,VALID,24.4911,VALID,62,VALID,0.791016,
2010-07-15, 00:53:04,VALID,1008.39,VALID,0,VALID,98.5857,VALID,0,VALID,24.4717,VALID,51,VALID,1.35938,
2010-07-15, 00:54:04,VALID,1008.39,VALID,0,VALID,98.7688,VALID,0.105969,VALID,24.4327,VALID,50,VALID,1.02813,
2010-07-15, 00:55:04,VALID,1008.37,VALID,0,VALID,98.5781,VALID,0,VALID,24.415,VALID,91,VALID,1.39805,
2010-07-15, 00:56:04,VALID,1008.35,VALID,0,VALID,98.8755,VALID,0,VALID,24.3547,VALID,75,VALID,1.20117,
2010-07-15, 00:57:04,VALID,1008.32,VALID,0,VALID,98.9518,VALID,0,VALID,24.3158,VALID,102,VALID,1.0457,
2010-07-15, 00:58:04,VALID,1008.34,VALID,0,VALID,99.3712,VALID,0.105969,VALID,24.2963,VALID,104,VALID,0.818359,
2010-07-15, 00:59:04,VALID,1008.33,VALID,0,VALID,99.7067,VALID,0,VALID,24.2768,VALID,104,VALID,1.19805,
2010-07-15, 01:00:04,VALID,1008.31,VALID,0,VALID,99.9508,VALID,0,VALID,24.2183,VALID,94,VALID,0.819141,
2010-07-15, 01:01:04,VALID,1008.31,VALID,0,VALID,100.256,VALID,0,VALID,24.2202,VALID,84,VALID,0.853906,
2010-07-15, 01:02:04,VALID,1008.26,VALID,0,VALID,100.187,VALID,0,VALID,24.1793,VALID,88,VALID,0.969531,
2010-07-15, 01:03:04,VALID,1008.26,VALID,0,VALID,100.263,VALID,0,VALID,24.1812,VALID,107,VALID,1.03984,
2010-07-15, 01:04:04,VALID,1008.22,VALID,0,VALID,100.523,VALID,0,VALID,24.1812,VALID,77,VALID,1.04102,
2010-07-15, 01:05:04,VALID,1008.23,VALID,0,VALID,100.317,VALID,0,VALID,24.1422,VALID,86,VALID,1.61641,
2010-07-15, 01:06:04,VALID,1008.2,VALID,0,VALID,100.164,VALID,0,VALID,24.1422,VALID,97,VALID,1.47187,
2010-07-15, 01:07:04,VALID,1008.16,VALID,0,VALID,100.439,VALID,0,VALID,24.1014,VALID,99,VALID,1.23438,
2010-07-15, 01:08:04,VALID,1008.17,VALID,0,VALID,100.668,VALID,0,VALID,24.1032,VALID,84,VALID,0.949219,
2010-07-15, 01:09:04,VALID,1008.11,VALID,0.5,VALID,100.706,VALID,0,VALID,24.0429,VALID,92,VALID,1.31719,
2010-07-15, 01:10:04,VALID,1008.15,VALID,0,VALID,100.797,VALID,0,VALID,24.0448,VALID,77,VALID,0.746094,
2010-07-15, 01:11:04,VALID,1008.09,VALID,0,VALID,100.995,VALID,0,VALID,24.0253,VALID,106,VALID,1.27266,
2010-07-15, 01:12:04,VALID,1008.06,VALID,0,VALID,101.178,VALID,0,VALID,23.965,VALID,109,VALID,1.66992,
2010-07-15, 01:13:04,VALID,1008.01,VALID,0,VALID,101.24,VALID,0,VALID,23.9863,VALID,115,VALID,1.47539,
2010-07-15, 01:14:04,VALID,1008.02,VALID,0,VALID,101.217,VALID,0,VALID,23.9668,VALID,115,VALID,1.07578,
2010-07-15, 01:15:04,VALID,1007.98,VALID,0,VALID,101.445,VALID,0,VALID,23.926,VALID,106,VALID,1.47695,
2010-07-15, 01:16:04,VALID,1007.97,VALID,0,VALID,101.499,VALID,0,VALID,23.9473,VALID,123,VALID,1.44492,
2010-07-15, 01:17:04,VALID,1007.93,VALID,0,VALID,101.667,VALID,0,VALID,23.9278,VALID,121,VALID,1.40469,
2010-07-15, 01:18:04,VALID,1007.91,VALID,0,VALID,101.796,VALID,0,VALID,23.9084,VALID,117,VALID,1.11875,
2010-07-15, 01:19:04,VALID,1007.85,VALID,0,VALID,101.88,VALID,0,VALID,23.8676,VALID,98,VALID,1.57617,
2010-07-15, 01:20:04,VALID,1007.84,VALID,0,VALID,101.88,VALID,0,VALID,23.8889,VALID,112,VALID,1.3832,
2010-07-15, 01:21:04,VALID,1007.82,VALID,0,VALID,101.972,VALID,0,VALID,23.8676,VALID,95,VALID,1.60469,
2010-07-15, 01:22:04,VALID,1007.82,VALID,0.5,VALID,102.078,VALID,0,VALID,23.8694,VALID,96,VALID,1.37812,
2010-07-15, 01:23:04,VALID,1007.81,VALID,0,VALID,102.109,VALID,0,VALID,23.8091,VALID,78,VALID,1.47578,
2010-07-15, 01:24:04,VALID,1007.82,VALID,0,VALID,102.132,VALID,0,VALID,23.8091,VALID,93,VALID,1.33945,
2010-07-15, 01:25:04,VALID,1007.8,VALID,0,VALID,102.155,VALID,0,VALID,23.8109,VALID,90,VALID,0.980078,
2010-07-15, 01:26:04,VALID,1007.78,VALID,0,VALID,102.185,VALID,0,VALID,23.7701,VALID,79,VALID,1.36836,
2010-07-15, 01:27:04,VALID,1007.74,VALID,0,VALID,102.216,VALID,0,VALID,23.7525,VALID,55,VALID,0.76875,
2010-07-15, 01:28:04,VALID,1007.73,VALID,0,VALID,102.292,VALID,0,VALID,23.733,VALID,72,VALID,0.876172,
2010-07-15, 01:29:04,VALID,1007.7,VALID,0,VALID,102.368,VALID,0.105969,VALID,23.6922,VALID,62,VALID,0.375781,
2010-07-15, 01:30:04,VALID,1007.68,VALID,0,VALID,102.421,VALID,0.105969,VALID,23.6532,VALID,53,VALID,0.395703,
2010-07-15, 01:31:04,VALID,1007.68,VALID,0,VALID,102.482,VALID,0.105969,VALID,23.6532,VALID,53,VALID,0,
2010-07-15, 01:32:04,VALID,1007.63,VALID,0,VALID,102.513,VALID,0,VALID,23.6338,VALID,82,VALID,0.425781,
2010-07-15, 01:33:04,VALID,1007.64,VALID,0,VALID,102.559,VALID,0,VALID,23.6338,VALID,82,VALID,0.180469,
2010-07-15, 01:34:04,VALID,1007.61,VALID,0,VALID,102.605,VALID,0,VALID,23.6373,VALID,98,VALID,0.96875,
2010-07-15, 01:35:04,VALID,1007.56,VALID,0,VALID,102.666,VALID,0,VALID,23.6356,VALID,56,VALID,0.755078,
2010-07-15, 01:36:04,VALID,1007.54,VALID,0,VALID,102.681,VALID,0,VALID,23.6373,VALID,40,VALID,0.5,
2010-07-15, 01:37:04,VALID,1007.51,VALID,0,VALID,102.673,VALID,0,VALID,23.6161,VALID,40,VALID,0.462891,
2010-07-15, 01:38:04,VALID,1007.49,VALID,0,VALID,102.696,VALID,0,VALID,23.6373,VALID,55,VALID,0.421094,
2010-07-15, 01:39:04,VALID,1007.47,VALID,0,VALID,102.727,VALID,0,VALID,23.6373,VALID,51,VALID,0.362891,
2010-07-15, 01:40:04,VALID,1007.43,VALID,0,VALID,102.727,VALID,0,VALID,23.5966,VALID,7,VALID,0.423047,
2010-07-15, 01:41:04,VALID,1007.47,VALID,0,VALID,102.727,VALID,0,VALID,23.6179,VALID,89,VALID,0.132031,
2010-07-15, 01:42:04,VALID,1007.44,VALID,0,VALID,102.734,VALID,0,VALID,23.5966,VALID,80,VALID,0.450781,
2010-07-15, 01:43:04,VALID,1007.44,VALID,0,VALID,102.742,VALID,0,VALID,23.5966,VALID,69,VALID,0.432813,
2010-07-15, 01:44:04,VALID,1007.45,VALID,0,VALID,102.742,VALID,0,VALID,23.6179,VALID,69,VALID,0.128906,
2010-07-15, 01:45:04,VALID,1007.47,VALID,0.5,VALID,102.772,VALID,0,VALID,23.6179,VALID,50,VALID,0.630078,
2010-07-15, 01:46:04,VALID,1007.46,VALID,0,VALID,102.765,VALID,0,VALID,23.5771,VALID,53,VALID,0.267188,
2010-07-15, 01:47:04,VALID,1007.46,VALID,0,VALID,102.765,VALID,0,VALID,23.5984,VALID,52,VALID,0.179688,
2010-07-15, 01:48:04,VALID,1007.46,VALID,0,VALID,102.765,VALID,0,VALID,23.5771,VALID,356,VALID,0.291016,
2010-07-15, 01:49:04,VALID,1007.47,VALID,0,VALID,102.749,VALID,0,VALID,23.5966,VALID,351,VALID,0,
2010-07-15, 01:50:04,VALID,1007.49,VALID,0,VALID,102.78,VALID,0,VALID,23.6161,VALID,351,VALID,0,
2010-07-15, 01:51:04,VALID,1007.48,VALID,0,VALID,102.772,VALID,0,VALID,23.5948,VALID,351,VALID,0,
2010-07-15, 01:52:04,VALID,1007.5,VALID,0,VALID,102.772,VALID,0,VALID,23.5948,VALID,320,VALID,0,
2010-07-15, 01:53:04,VALID,1007.51,VALID,0,VALID,102.765,VALID,0.105969,VALID,23.6143,VALID,320,VALID,0.141406,
2010-07-15, 01:54:04,VALID,1007.5,VALID,0,VALID,102.772,VALID,0,VALID,23.6338,VALID,320,VALID,0,
2010-07-15, 01:55:04,VALID,1007.53,VALID,0,VALID,102.772,VALID,0,VALID,23.6338,VALID,320,VALID,0,
2010-07-15, 01:56:04,VALID,1007.55,VALID,0,VALID,102.803,VALID,0,VALID,23.6143,VALID,360,VALID,0.579297,
2010-07-15, 01:57:04,VALID,1007.51,VALID,0,VALID,102.78,VALID,0,VALID,23.6338,VALID,20,VALID,0.170703,
2010-07-15, 01:58:04,VALID,1007.52,VALID,0,VALID,102.795,VALID,0,VALID,23.6356,VALID,20,VALID,0.210938,
2010-07-15, 01:59:04,VALID,1007.53,VALID,0,VALID,102.803,VALID,0,VALID,23.6161,VALID,339,VALID,0.090625,
2010-07-15, 02:00:04,VALID,1007.51,VALID,0,VALID,102.749,VALID,0,VALID,23.5948,VALID,339,VALID,0,
2010-07-15, 02:01:04,VALID,1007.51,VALID,0,VALID,102.772,VALID,0,VALID,23.5966,VALID,342,VALID,0.0910156,
2010-07-15, 02:02:04,VALID,1007.51,VALID,0,VALID,102.78,VALID,0.105969,VALID,23.5753,VALID,342,VALID,0,
2010-07-15, 02:03:04,VALID,1007.47,VALID,0,VALID,102.772,VALID,0.105969,VALID,23.5753,VALID,335,VALID,0,
2010-07-15, 02:04:04,VALID,1007.45,VALID,0,VALID,102.757,VALID,0,VALID,23.6179,VALID,176,VALID,0,
2010-07-15, 02:05:04,VALID,1007.46,VALID,0,VALID,102.742,VALID,0,VALID,23.5966,VALID,176,VALID,0,
2010-07-15, 02:06:04,VALID,1007.42,VALID,0,VALID,102.78,VALID,0,VALID,23.5771,VALID,298,VALID,0,
2010-07-15, 02:07:04,VALID,1007.43,VALID,0,VALID,102.742,VALID,0,VALID,23.5966,VALID,298,VALID,0,
2010-07-15, 02:08:04,VALID,1007.43,VALID,0,VALID,102.742,VALID,0,VALID,23.6373,VALID,298,VALID,0,
2010-07-15, 02:09:04,VALID,1007.42,VALID,0,VALID,102.757,VALID,0,VALID,23.5966,VALID,298,VALID,0,
2010-07-15, 02:10:04,VALID,1007.42,VALID,0,VALID,102.772,VALID,0,VALID,23.5771,VALID,73,VALID,0,
2010-07-15, 02:11:04,VALID,1007.4,VALID,0,VALID,102.749,VALID,0,VALID,23.5771,VALID,73,VALID,0,
2010-07-15, 02:12:04,VALID,1007.37,VALID,0,VALID,102.772,VALID,0,VALID,23.5771,VALID,73,VALID,0,
2010-07-15, 02:13:04,VALID,1007.37,VALID,0,VALID,102.742,VALID,0,VALID,23.5984,VALID,73,VALID,0,
2010-07-15, 02:14:04,VALID,1007.33,VALID,0,VALID,102.734,VALID,0,VALID,23.5771,VALID,52,VALID,0,
2010-07-15, 02:15:04,VALID,1007.33,VALID,0,VALID,102.727,VALID,0,VALID,23.5984,VALID,307,VALID,0,
2010-07-15, 02:16:04,VALID,1007.34,VALID,0,VALID,102.727,VALID,0,VALID,23.5771,VALID,49,VALID,0,
2010-07-15, 02:17:04,VALID,1007.33,VALID,0,VALID,102.727,VALID,0,VALID,23.5576,VALID,49,VALID,0,
2010-07-15, 02:18:04,VALID,1007.3,VALID,0,VALID,102.727,VALID,0,VALID,23.5771,VALID,103,VALID,0,
2010-07-15, 02:19:04,VALID,1007.35,VALID,0,VALID,102.734,VALID,0,VALID,23.5576,VALID,104,VALID,0,
2010-07-15, 02:20:04,VALID,1007.34,VALID,0,VALID,102.742,VALID,0,VALID,23.5576,VALID,104,VALID,0,
2010-07-15, 02:21:04,VALID,1007.33,VALID,0,VALID,102.719,VALID,0,VALID,23.5576,VALID,104,VALID,0,
2010-07-15, 02:22:04,VALID,1007.33,VALID,0,VALID,102.711,VALID,0,VALID,23.5789,VALID,83,VALID,0.683594,
2010-07-15, 02:23:04,VALID,1007.35,VALID,0,VALID,102.711,VALID,0,VALID,23.5984,VALID,96,VALID,0.860156,
2010-07-15, 02:24:04,VALID,1007.33,VALID,0,VALID,102.711,VALID,0,VALID,23.5789,VALID,79,VALID,0.736719,
2010-07-15, 02:25:04,VALID,1007.29,VALID,0,VALID,102.727,VALID,0,VALID,23.5771,VALID,79,VALID,0.530469,
2010-07-15, 02:26:04,VALID,1007.26,VALID,0,VALID,102.757,VALID,0,VALID,23.5771,VALID,63,VALID,0.683984,
2010-07-15, 02:27:04,VALID,1007.25,VALID,0,VALID,102.734,VALID,0,VALID,23.5576,VALID,43,VALID,0.421875,
2010-07-15, 02:28:04,VALID,1007.21,VALID,0,VALID,102.742,VALID,0,VALID,23.5984,VALID,43,VALID,0.260547,
2010-07-15, 02:29:04,VALID,1007.21,VALID,0,VALID,102.749,VALID,0,VALID,23.5789,VALID,43,VALID,0,
2010-07-15, 02:30:04,VALID,1007.19,VALID,0,VALID,102.772,VALID,0,VALID,23.5789,VALID,43,VALID,0,
2010-07-15, 02:31:04,VALID,1007.15,VALID,0,VALID,102.772,VALID,0,VALID,23.5576,VALID,43,VALID,0,
2010-07-15, 02:32:04,VALID,1007.12,VALID,0,VALID,102.772,VALID,0,VALID,23.5576,VALID,43,VALID,0,
2010-07-15, 02:33:04,VALID,1007.11,VALID,0,VALID,102.757,VALID,0,VALID,23.5576,VALID,43,VALID,0.0867188,
2010-07-15, 02:34:04,VALID,1007.06,VALID,0,VALID,102.772,VALID,0,VALID,23.5771,VALID,43,VALID,0.16875,
2010-07-15, 02:35:04,VALID,1007.02,VALID,0,VALID,102.765,VALID,0,VALID,23.5576,VALID,43,VALID,0,
2010-07-15, 02:36:04,VALID,1006.99,VALID,0,VALID,102.757,VALID,0,VALID,23.5771,VALID,43,VALID,0,
2010-07-15, 02:37:04,VALID,1006.97,VALID,0,VALID,102.742,VALID,0,VALID,23.5576,VALID,43,VALID,0,
2010-07-15, 02:38:04,VALID,1006.96,VALID,0,VALID,102.78,VALID,0,VALID,23.5576,VALID,43,VALID,0.0371094,
2010-07-15, 02:39:04,VALID,1006.94,VALID,0,VALID,102.765,VALID,0,VALID,23.5576,VALID,43,VALID,0,
2010-07-15, 02:40:04,VALID,1006.9,VALID,0,VALID,102.765,VALID,0,VALID,23.5381,VALID,43,VALID,0,
2010-07-15, 02:41:04,VALID,1006.89,VALID,0,VALID,102.788,VALID,0.105969,VALID,23.5381,VALID,43,VALID,0,
2010-07-15, 02:42:04,VALID,1006.89,VALID,0,VALID,102.765,VALID,0,VALID,23.5186,VALID,43,VALID,0,
2010-07-15, 02:43:04,VALID,1006.9,VALID,0,VALID,102.788,VALID,0,VALID,23.4992,VALID,43,VALID,0,
2010-07-15, 02:44:04,VALID,1006.88,VALID,0,VALID,102.81,VALID,0.105969,VALID,23.4797,VALID,43,VALID,0,
2010-07-15, 02:45:04,VALID,1006.86,VALID,0,VALID,102.765,VALID,0,VALID,23.4797,VALID,43,VALID,0,
2010-07-15, 02:46:04,VALID,1006.85,VALID,0,VALID,102.803,VALID,0,VALID,23.4797,VALID,43,VALID,0,
2010-07-15, 02:47:04,VALID,1006.87,VALID,0,VALID,102.78,VALID,0,VALID,23.4389,VALID,43,VALID,0,
2010-07-15, 02:48:04,VALID,1006.85,VALID,0,VALID,102.765,VALID,0.105969,VALID,23.4584,VALID,43,VALID,0,
2010-07-15, 02:49:04,VALID,1006.87,VALID,0,VALID,102.788,VALID,0,VALID,23.4194,VALID,43,VALID,0,
2010-07-15, 02:50:04,VALID,1006.87,VALID,0,VALID,102.749,VALID,0,VALID,23.4194,VALID,43,VALID,0,
2010-07-15, 02:51:04,VALID,1006.87,VALID,0,VALID,102.772,VALID,0.105969,VALID,23.4212,VALID,43,VALID,0,
2010-07-15, 02:52:04,VALID,1006.85,VALID,0,VALID,102.772,VALID,0.105969,VALID,23.4212,VALID,43,VALID,0,
2010-07-15, 02:53:04,VALID,1006.84,VALID,0,VALID,102.765,VALID,0,VALID,23.4212,VALID,43,VALID,0,
2010-07-15, 02:54:04,VALID,1006.84,VALID,0,VALID,102.742,VALID,0,VALID,23.4212,VALID,43,VALID,0,
2010-07-15, 02:55:04,VALID,1006.84,VALID,0,VALID,102.742,VALID,0.105969,VALID,23.4212,VALID,43,VALID,0,
2010-07-15, 02:56:04,VALID,1006.86,VALID,0,VALID,102.742,VALID,0,VALID,23.4017,VALID,97,VALID,0.513672,
2010-07-15, 02:57:04,VALID,1006.88,VALID,0,VALID,102.734,VALID,0.105969,VALID,23.4212,VALID,102,VALID,0.667578,
2010-07-15, 02:58:04,VALID,1006.89,VALID,0,VALID,102.704,VALID,0.105969,VALID,23.4212,VALID,97,VALID,0.768359,
2010-07-15, 02:59:04,VALID,1006.91,VALID,0,VALID,102.711,VALID,0,VALID,23.4212,VALID,93,VALID,1.07227,
2010-07-15, 03:00:04,VALID,1006.93,VALID,0,VALID,102.704,VALID,0,VALID,23.4407,VALID,88,VALID,0.973437,
2010-07-15, 03:01:04,VALID,1006.93,VALID,0,VALID,102.688,VALID,0,VALID,23.4602,VALID,98,VALID,0.774219,
2010-07-15, 03:02:04,VALID,1006.93,VALID,0,VALID,102.666,VALID,0.105969,VALID,23.4584,VALID,103,VALID,0.817187,
2010-07-15, 03:03:04,VALID,1006.93,VALID,0,VALID,102.696,VALID,0.105969,VALID,23.4584,VALID,103,VALID,0.999219,
2010-07-15, 03:04:04,VALID,1006.94,VALID,0,VALID,102.711,VALID,0.105969,VALID,23.4797,VALID,104,VALID,1.02773,
2010-07-15, 03:05:04,VALID,1006.93,VALID,0,VALID,102.727,VALID,0.105969,VALID,23.4584,VALID,101,VALID,0.552344,
2010-07-15, 03:06:04,VALID,1006.92,VALID,0,VALID,102.734,VALID,0,VALID,23.4992,VALID,92,VALID,0.649609,
2010-07-15, 03:07:04,VALID,1006.89,VALID,0,VALID,102.757,VALID,0.105969,VALID,23.4797,VALID,84,VALID,0.628516,
2010-07-15, 03:08:04,VALID,1006.87,VALID,0,VALID,102.765,VALID,0.105969,VALID,23.4779,VALID,78,VALID,0.353125,
2010-07-15, 03:09:04,VALID,1006.84,VALID,0,VALID,102.78,VALID,0.105969,VALID,23.4779,VALID,73,VALID,0.590234,
2010-07-15, 03:10:04,VALID,1006.8,VALID,0,VALID,102.795,VALID,0.105969,VALID,23.4584,VALID,57,VALID,0.370703,
2010-07-15, 03:11:04,VALID,1006.79,VALID,0,VALID,102.795,VALID,0,VALID,23.4584,VALID,49,VALID,0.0425781,
2010-07-15, 03:12:04,VALID,1006.77,VALID,0,VALID,102.826,VALID,0.105969,VALID,23.4797,VALID,49,VALID,0,
2010-07-15, 03:13:04,VALID,1006.75,VALID,0,VALID,102.818,VALID,0.105969,VALID,23.4584,VALID,49,VALID,0,
2010-07-15, 03:14:04,VALID,1006.76,VALID,0,VALID,102.833,VALID,0.105969,VALID,23.4389,VALID,49,VALID,0,
2010-07-15, 03:15:04,VALID,1006.75,VALID,0,VALID,102.826,VALID,0.105969,VALID,23.4389,VALID,49,VALID,0,
2010-07-15, 03:16:04,VALID,1006.74,VALID,0,VALID,102.818,VALID,0,VALID,23.4389,VALID,49,VALID,0,
2010-07-15, 03:17:04,VALID,1006.73,VALID,0,VALID,102.818,VALID,0.105969,VALID,23.4194,VALID,49,VALID,0,
2010-07-15, 03:18:04,VALID,1006.68,VALID,0,VALID,102.826,VALID,0,VALID,23.4194,VALID,48,VALID,0,
2010-07-15, 03:19:04,VALID,1006.68,VALID,0,VALID,102.849,VALID,0,VALID,23.4212,VALID,49,VALID,0,
2010-07-15, 03:20:04,VALID,1006.68,VALID,0,VALID,102.833,VALID,0.105969,VALID,23.4212,VALID,49,VALID,0,
2010-07-15, 03:21:04,VALID,1006.64,VALID,0,VALID,102.833,VALID,0,VALID,23.4,VALID,49,VALID,0,
2010-07-15, 03:22:04,VALID,1006.62,VALID,0,VALID,102.841,VALID,0.105969,VALID,23.4,VALID,102,VALID,0,
2010-07-15, 03:23:04,VALID,1006.63,VALID,0,VALID,102.833,VALID,0.105969,VALID,23.4407,VALID,104,VALID,0,
2010-07-15, 03:24:04,VALID,1006.62,VALID,0,VALID,102.841,VALID,0,VALID,23.4389,VALID,112,VALID,0,
2010-07-15, 03:25:04,VALID,1006.61,VALID,0,VALID,102.849,VALID,0.105969,VALID,23.4389,VALID,112,VALID,0.365234,
2010-07-15, 03:26:04,VALID,1006.61,VALID,0,VALID,102.841,VALID,0.105969,VALID,23.4194,VALID,112,VALID,0.219922,
2010-07-15, 03:27:04,VALID,1006.59,VALID,0,VALID,102.826,VALID,0.105969,VALID,23.4389,VALID,112,VALID,0,
2010-07-15, 03:28:04,VALID,1006.63,VALID,0,VALID,102.841,VALID,0.105969,VALID,23.4407,VALID,112,VALID,0,
2010-07-15, 03:29:04,VALID,1006.63,VALID,0,VALID,102.826,VALID,0,VALID,23.4389,VALID,112,VALID,0,
2010-07-15, 03:30:04,VALID,1006.62,VALID,0,VALID,102.864,VALID,0.105969,VALID,23.4,VALID,104,VALID,0.372656,
2010-07-15, 03:31:04,VALID,1006.64,VALID,0,VALID,102.871,VALID,0.105969,VALID,23.4,VALID,57,VALID,0.644922,
2010-07-15, 03:32:04,VALID,1006.65,VALID,0,VALID,102.864,VALID,0,VALID,23.4212,VALID,57,VALID,0.489453,
2010-07-15, 03:33:04,VALID,1006.68,VALID,0,VALID,102.871,VALID,0.105969,VALID,23.4,VALID,57,VALID,0.0796875,
2010-07-15, 03:34:04,VALID,1006.69,VALID,0,VALID,102.879,VALID,0,VALID,23.3823,VALID,57,VALID,0.00429688,
2010-07-15, 03:35:04,VALID,1006.7,VALID,0,VALID,102.864,VALID,0,VALID,23.4035,VALID,57,VALID,0.0585938,
2010-07-15, 03:36:04,VALID,1006.74,VALID,0,VALID,102.887,VALID,0,VALID,23.3823,VALID,57,VALID,0,
2010-07-15, 03:37:04,VALID,1006.77,VALID,0,VALID,102.864,VALID,0,VALID,23.4035,VALID,63,VALID,0.70625,
2010-07-15, 03:38:04,VALID,1006.8,VALID,0,VALID,102.864,VALID,0,VALID,23.3823,VALID,78,VALID,0.98125,
2010-07-15, 03:39:04,VALID,1006.84,VALID,0,VALID,102.864,VALID,0,VALID,23.4035,VALID,57,VALID,0.906641,
2010-07-15, 03:40:04,VALID,1006.86,VALID,0,VALID,102.871,VALID,0,VALID,23.4035,VALID,73,VALID,0.69375,
2010-07-15, 03:41:04,VALID,1006.88,VALID,0,VALID,102.864,VALID,0,VALID,23.3823,VALID,70,VALID,0,
2010-07-15, 03:42:04,VALID,1006.86,VALID,0,VALID,102.887,VALID,0,VALID,23.384,VALID,70,VALID,0.115625,
2010-07-15, 03:43:04,VALID,1006.85,VALID,0,VALID,102.879,VALID,0,VALID,23.3628,VALID,70,VALID,0.36875,
2010-07-15, 03:44:04,VALID,1006.84,VALID,0,VALID,102.887,VALID,0,VALID,23.3628,VALID,70,VALID,0.335547,
2010-07-15, 03:45:04,VALID,1006.83,VALID,0,VALID,102.871,VALID,0,VALID,23.3433,VALID,70,VALID,0.237891,
2010-07-15, 03:46:04,VALID,1006.81,VALID,0,VALID,102.864,VALID,0,VALID,23.3451,VALID,70,VALID,0.0316406,
2010-07-15, 03:47:04,VALID,1006.85,VALID,0,VALID,102.887,VALID,0,VALID,23.3238,VALID,33,VALID,0.390625,